Weslaco, TX

6:24 AM CST on February 27, 2017 (GMT -0600)
Weslaco

Weather History for KT65 - April, 2012

Change the Weather History Date:

Friday, April 13, 2012

  Actual Average (KMFE) Record (KMFE)
Temperature  
Mean Temperature 80 °F -  
Max Temperature 87 °F 82 °F 99 °F (1982)
Min Temperature 73 °F 63 °F 48 °F (1997)
Cooling Degree Days 15    
Growing Degree Days 30 (Base 50)    
Moisture  
Dew Point 68 °F    
Average Humidity 69    
Maximum Humidity 83    
Minimum Humidity 48    
Precipitation  
Precipitation 0.00 in - - ()
Sea Level Pressure  
Sea Level Pressure 29.87 in    
Wind  
Wind Speed 13 mph (SSE)    
Max Wind Speed 24 mph    
Max Gust Speed 31 mph    
Visibility 10 miles    
Events      
Averages and records for this station are not official NWS values.
T = Trace of Precipitation, MM = Missing Value Source: NWS Daily Summary

Daily Weather History Graph

Daily Weather History Graph

Search for Another Location

Airport or City:

Trip Planner

Search our weather history database for the weather conditions in past years. The results will help you decide how hot, cold, wet, or windy it might be!

Date:

Astronomy

Apr. 13, 2012 Rise Set
Actual Time 7:10 AM CDT 7:54 PM CDT
Civil Twilight 6:46 AM CDT 8:18 PM CDT
Nautical Twilight 6:18 AM CDT 8:46 PM CDT
Astronomical Twilight 5:50 AM CDT 9:14 PM CDT
Moon 2:13 AM CDT (4/13) 1:25 PM CDT (4/13)
Length of Visible Light 13h 31m
Length of Day
12h 44m
Waning Gibbous, 47% of the Moon is Illuminated
Apr 13
Waning Gibbous
Apr 21
New
Apr 29
First Quarter
May 5
Full
May 12
Last Quarter

Hourly Weather History & Observations

Time (CDT) Temp. Heat Index Dew Point Humidity Pressure Visibility Wind Dir Wind Speed Gust Speed Precip Events Conditions
12:15 AM 73.4 °F - 68.0 °F 83% 29.91 in 10.0 mi SE 8.1 mph - N/A   Scattered Clouds
12:35 AM 73.4 °F - 68.0 °F 83% 29.91 in 10.0 mi SE 10.4 mph - N/A   Mostly Cloudy
12:55 AM 73.4 °F - 68.0 °F 83% 29.90 in 10.0 mi SE 10.4 mph 17.3 mph N/A   Mostly Cloudy
1:15 AM 73.4 °F - 68.0 °F 83% 29.91 in 10.0 mi SSE 12.7 mph 17.3 mph N/A   Overcast
1:35 AM 75.2 °F - 68.0 °F 78% 29.90 in 10.0 mi SSE 12.7 mph 23.0 mph N/A   Overcast
1:55 AM 73.4 °F - 68.0 °F 83% 29.88 in 10.0 mi SE 11.5 mph 18.4 mph N/A   Overcast
2:15 AM 73.4 °F - 68.0 °F 83% 29.88 in 10.0 mi SSE 10.4 mph 19.6 mph N/A   Mostly Cloudy
2:35 AM 73.4 °F - 68.0 °F 83% 29.87 in 10.0 mi SE 12.7 mph 16.1 mph N/A   Scattered Clouds
2:55 AM 73.4 °F - 68.0 °F 83% 29.86 in 10.0 mi SE 12.7 mph 16.1 mph N/A   Mostly Cloudy
3:15 AM 73.4 °F - 68.0 °F 83% 29.85 in 10.0 mi SE 10.4 mph 18.4 mph N/A   Mostly Cloudy
3:35 AM 73.4 °F - 68.0 °F 83% 29.86 in 10.0 mi SE 11.5 mph - N/A   Mostly Cloudy
4:15 AM 73.4 °F - 68.0 °F 83% 29.86 in 10.0 mi SE 8.1 mph - N/A   Overcast
4:35 AM 73.4 °F - 68.0 °F 83% 29.87 in 10.0 mi SE 11.5 mph 16.1 mph N/A   Overcast
4:55 AM 73.4 °F - 68.0 °F 83% 29.87 in 10.0 mi SSE 9.2 mph - N/A   Overcast
5:15 AM 73.4 °F - 68.0 °F 83% 29.87 in 10.0 mi SSE 11.5 mph 17.3 mph N/A   Overcast
5:35 AM 73.4 °F - 68.0 °F 83% 29.87 in 10.0 mi SE 9.2 mph - N/A   Mostly Cloudy
5:55 AM 73.4 °F - 68.0 °F 83% 29.87 in 10.0 mi SE 8.1 mph - N/A   Overcast
6:15 AM 73.4 °F - 68.0 °F 83% 29.87 in 10.0 mi SE 10.4 mph - N/A   Overcast
6:35 AM 73.4 °F - 68.0 °F 83% 29.88 in 10.0 mi SE 8.1 mph - N/A   Mostly Cloudy
6:55 AM 73.4 °F - 68.0 °F 83% 29.88 in 10.0 mi SE 8.1 mph - N/A   Scattered Clouds
7:35 AM 73.4 °F - 68.0 °F 83% 29.89 in 10.0 mi SE 6.9 mph - N/A   Scattered Clouds
7:55 AM 73.4 °F - 68.0 °F 83% 29.89 in 10.0 mi SE 8.1 mph - N/A   Clear
8:15 AM 75.2 °F - 69.8 °F 83% 29.89 in 10.0 mi SE 11.5 mph 19.6 mph N/A   Clear
8:35 AM 77.0 °F - 69.8 °F 78% 29.89 in 10.0 mi SE 10.4 mph 16.1 mph N/A   Clear
8:55 AM 78.8 °F - 69.8 °F 74% 29.90 in 10.0 mi SSE 12.7 mph 18.4 mph N/A   Scattered Clouds
9:15 AM 78.8 °F - 69.8 °F 74% 29.91 in 10.0 mi SSE 12.7 mph 20.7 mph N/A   Mostly Cloudy
9:35 AM 78.8 °F - 68.0 °F 69% 29.91 in 10.0 mi SSE 17.3 mph 24.2 mph N/A   Overcast
9:55 AM 80.6 °F 83.9 °F 69.8 °F 70% 29.91 in 10.0 mi SSE 18.4 mph 23.0 mph N/A   Mostly Cloudy
10:15 AM 80.6 °F 83.2 °F 68.0 °F 65% 29.91 in 10.0 mi SSE 17.3 mph 24.2 mph N/A   Scattered Clouds
10:55 AM 82.4 °F 85.4 °F 68.0 °F 62% 29.91 in 7.0 mi SSE 19.6 mph 28.8 mph N/A   Mostly Cloudy
11:15 AM 86.0 °F 89.4 °F 68.0 °F 55% 29.91 in 10.0 mi SSE 18.4 mph 26.5 mph N/A   Mostly Cloudy
11:35 AM 82.4 °F 84.6 °F 66.2 °F 58% 29.91 in 7.0 mi SSE 19.6 mph 27.6 mph N/A   Overcast
11:55 AM 84.2 °F 86.6 °F 66.2 °F 55% 29.91 in 7.0 mi SSE 19.6 mph 26.5 mph N/A   Mostly Cloudy
12:15 PM 84.2 °F 86.6 °F 66.2 °F 55% 29.91 in 10.0 mi SSE 16.1 mph 28.8 mph N/A   Mostly Cloudy
12:35 PM 86.0 °F 89.4 °F 68.0 °F 55% 29.90 in 10.0 mi SSE 21.9 mph 29.9 mph N/A   Mostly Cloudy
12:55 PM 87.8 °F 90.4 °F 66.2 °F 49% 29.89 in 10.0 mi SSE 24.2 mph 31.1 mph N/A   Mostly Cloudy
1:15 PM 86.0 °F 88.2 °F 66.2 °F 51% 29.89 in 10.0 mi SSE 19.6 mph 31.1 mph N/A   Mostly Cloudy
1:35 PM 86.0 °F 88.2 °F 66.2 °F 51% 29.88 in 10.0 mi SSE 19.6 mph 27.6 mph N/A   Overcast
1:55 PM 86.0 °F 87.3 °F 64.4 °F 48% 29.88 in 7.0 mi SSE 18.4 mph 29.9 mph N/A   Overcast
2:15 PM 87.8 °F 90.4 °F 66.2 °F 49% 29.87 in 10.0 mi SE 17.3 mph 27.6 mph N/A   Mostly Cloudy
2:35 PM 86.0 °F 88.2 °F 66.2 °F 51% 29.87 in 7.0 mi SSE 20.7 mph 27.6 mph N/A   Scattered Clouds
2:55 PM 87.8 °F 91.4 °F 68.0 °F 52% 29.86 in 10.0 mi SSE 19.6 mph 27.6 mph N/A   Mostly Cloudy
3:15 PM 86.0 °F 88.2 °F 66.2 °F 51% 29.86 in 10.0 mi SSE 18.4 mph 29.9 mph N/A   Mostly Cloudy
3:35 PM 87.8 °F 90.4 °F 66.2 °F 49% 29.85 in 10.0 mi SSE 19.6 mph 28.8 mph N/A   Mostly Cloudy
3:55 PM 87.8 °F 91.4 °F 68.0 °F 52% 29.85 in 10.0 mi SSE 19.6 mph 28.8 mph N/A   Mostly Cloudy
4:15 PM 86.0 °F 88.2 °F 66.2 °F 51% 29.84 in 10.0 mi South 20.7 mph 26.5 mph N/A   Mostly Cloudy
4:35 PM 86.0 °F 88.2 °F 66.2 °F 51% 29.83 in 10.0 mi SSE 20.7 mph 27.6 mph N/A   Scattered Clouds
4:55 PM 86.0 °F 88.2 °F 66.2 °F 51% 29.82 in 10.0 mi SSE 20.7 mph 26.5 mph N/A   Scattered Clouds
5:15 PM 86.0 °F 88.2 °F 66.2 °F 51% 29.81 in 10.0 mi SE 19.6 mph 31.1 mph N/A   Mostly Cloudy
5:35 PM 86.0 °F 88.2 °F 66.2 °F 51% 29.82 in 10.0 mi SSE 21.9 mph 28.8 mph N/A   Mostly Cloudy
5:55 PM 86.0 °F 88.2 °F 66.2 °F 51% 29.82 in 10.0 mi SSE 19.6 mph 25.3 mph N/A   Mostly Cloudy
6:15 PM 82.4 °F 84.6 °F 66.2 °F 58% 29.82 in 10.0 mi SSE 20.7 mph 27.6 mph N/A   Mostly Cloudy
6:55 PM 80.6 °F 83.2 °F 68.0 °F 65% 29.82 in 10.0 mi SE 19.6 mph 27.6 mph N/A   Scattered Clouds
7:15 PM 80.6 °F 82.7 °F 66.2 °F 61% 29.83 in 10.0 mi SE 19.6 mph 24.2 mph N/A   Scattered Clouds
7:55 PM 78.8 °F - 66.2 °F 65% 29.83 in 10.0 mi SSE 17.3 mph 23.0 mph N/A   Clear
8:15 PM 78.8 °F - 68.0 °F 69% 29.84 in 10.0 mi SSE 17.3 mph 21.9 mph N/A   Clear
8:35 PM 77.0 °F - 68.0 °F 74% 29.84 in 10.0 mi SSE 13.8 mph 23.0 mph N/A   Clear
8:55 PM 77.0 °F - 68.0 °F 74% 29.85 in 10.0 mi SE 10.4 mph 17.3 mph N/A   Clear
9:15 PM 77.0 °F - 68.0 °F 74% 29.86 in 10.0 mi SE 10.4 mph 16.1 mph N/A   Clear
9:35 PM 77.0 °F - 69.8 °F 78% 29.86 in 10.0 mi SSE 12.7 mph 18.4 mph N/A   Mostly Cloudy
9:55 PM 77.0 °F - 69.8 °F 78% 29.87 in 10.0 mi SE 10.4 mph - N/A   Overcast
10:15 PM 77.0 °F - 69.8 °F 78% 29.88 in 10.0 mi SE 11.5 mph 17.3 mph N/A   Overcast
10:35 PM 77.0 °F - 69.8 °F 78% 29.87 in 10.0 mi SE 11.5 mph 16.1 mph N/A   Overcast
10:55 PM 77.0 °F - 69.8 °F 78% 29.88 in 10.0 mi SSE 11.5 mph 16.1 mph N/A   Overcast
11:15 PM 77.0 °F - 69.8 °F 78% 29.88 in 10.0 mi SSE 11.5 mph - N/A   Overcast
11:35 PM 77.0 °F - 69.8 °F 78% 29.88 in 10.0 mi SE 10.4 mph - N/A   Overcast
11:55 PM 77.0 °F - 69.8 °F 78% 29.88 in 10.0 mi SSE 13.8 mph - N/A   Overcast